GFSNE_700_temp_321.txt.gz
Temp
1 1 1 0 -0 -0 -0 -0 -0 -0 -0 -0 -1 -1 -0 -0 -0 -0 -0 -1 -2 -2 -2 -1 -1 -1 -1 -2 -3 -4 -5 -6 -7 -8 -8 -9 -9 -9
1 1 0 -0 -1 -1 -1 -1 -1 -1 -1 -1 -1 -1 -1 -1 -1 -1 -1 -2 -2 -2 -2 -2 -1 -2 -2 -3 -5 -6 -7 -8 -9 -9 -9 -9 -9 -8
1 1 -0 -0 -0 -0 -1 -1 -0 -1 -1 -1 -1 -1 -1 -1 -2 -2 -2 -2 -2 -2 -2 -2 -2 -3 -4 -5 -6 -7 -8 -9 -9 -9 -9 -9 -9 -8
0 0 0 -0 -1 -1 -1 -1 -1 -1 -2 -1 -2 -2 -2 -2 -2 -2 -2 -2 -2 -2 -2 -3 -4 -5 -5 -7 -8 -9 -10 -10 -10 -9 -9 -9 -9 -8
-1 -1 -1 -1 -1 -1 -1 -1 -1 -2 -2 -2 -2 -2 -3 -3 -3 -3 -2 -2 -2 -2 -3 -4 -6 -6 -8 -9 -10 -11 -11 -11 -10 -10 -10 -9 -9 -10
-1 -1 -1 -1 -1 -2 -2 -1 -2 -2 -2 -2 -3 -3 -3 -3 -3 -3 -2 -2 -3 -4 -4 -6 -7 -8 -10 -10 -11 -11 -11 -11 -10 -11 -10 -9 -9 -10
-1 -1 -1 -1 -2 -2 -2 -2 -3 -3 -3 -3 -3 -4 -4 -3 -3 -3 -3 -2 -4 -5 -5 -8 -8 -9 -10 -11 -12 -12 -12 -12 -11 -11 -11 -10 -9 -10
-1 -1 -1 -2 -2 -2 -2 -3 -3 -3 -3 -4 -4 -4 -4 -4 -3 -3 -3 -3 -3 -6 -6 -8 -10 -11 -12 -12 -12 -12 -12 -12 -11 -11 -11 -10 -10 -10
-1 -1 -2 -2 -2 -3 -3 -4 -4 -4 -4 -4 -5 -4 -4 -4 -4 -4 -4 -5 -7 -7 -8 -9 -11 -12 -12 -12 -12 -12 -12 -12 -12 -11 -11 -11 -10 -10
-1 -1 -2 -2 -3 -4 -4 -4 -4 -4 -5 -5 -5 -5 -5 -4 -4 -5 -5 -7 -8 -10 -10 -10 -12 -12 -12 -12 -12 -12 -12 -12 -12 -11 -11 -11 -11 -10
-2 -2 -3 -4 -4 -5 -5 -5 -5 -5 -6 -6 -5 -5 -5 -5 -5 -6 -7 -7 -8 -10 -11 -11 -12 -11 -12 -12 -12 -12 -12 -12 -12 -12 -11 -11 -11 -11
-2 -3 -4 -5 -6 -6 -5 -5 -6 -6 -6 -6 -6 -6 -6 -6 -7 -7 -8 -9 -9 -10 -11 -11 -12 -11 -11 -12 -12 -12 -12 -12 -12 -12 -12 -11 -11 -11
-3 -3 -5 -6 -6 -6 -6 -6 -6 -7 -6 -6 -6 -6 -6 -7 -8 -9 -9 -10 -11 -12 -12 -12 -12 -12 -12 -12 -12 -12 -12 -12 -12 -12 -12 -12 -12 -11
-3 -5 -7 -6 -6 -6 -7 -7 -7 -7 -6 -6 -6 -6 -7 -8 -9 -10 -11 -12 -12 -12 -12 -12 -12 -12 -12 -12 -12 -13 -13 -13 -13 -12 -12 -12 -12 -12
-5 -7 -8 -7 -7 -8 -8 -8 -7 -7 -7 -6 -6 -7 -8 -9 -9 -10 -11 -12 -13 -13 -13 -13 -13 -13 -13 -12 -12 -12 -13 -13 -13 -13 -13 -12 -12 -12
-8 -9 -8 -8 -8 -8 -9 -8 -7 -7 -7 -7 -7 -8 -9 -10 -11 -11 -11 -12 -13 -13 -13 -13 -13 -13 -13 -13 -12 -13 -13 -13 -13 -13 -13 -13 -13 -12
-10 -9 -9 -9 -9 -9 -9 -9 -8 -7 -7 -8 -8 -9 -10 -11 -11 -12 -12 -13 -13 -13 -13 -13 -13 -13 -13 -13 -13 -13 -13 -13 -13 -13 -13 -13 -13 -13
-10 -10 -10 -10 -10 -10 -10 -8 -8 -8 -8 -9 -9 -10 -11 -11 -12 -12 -13 -14 -13 -13 -13 -13 -13 -13 -13 -13 -13 -13 -13 -13 -13 -13 -13 -13 -13 -13
-11 -10 -10 -10 -10 -10 -9 -9 -9 -9 -9 -10 -10 -11 -11 -12 -12 -13 -14 -14 -14 -14 -14 -13 -13 -13 -13 -13 -14 -14 -14 -14 -14 -14 -14 -13 -13 -13
-11 -11 -10 -11 -11 -10 -9 -9 -9 -10 -10 -11 -12 -12 -12 -13 -13 -14 -14 -14 -14 -14 -14 -14 -14 -14 -14 -13 -14 -14 -14 -14 -14 -14 -14 -14 -14 -14
-11 -11 -12 -12 -10 -10 -10 -10 -10 -10 -11 -12 -12 -13 -13 -13 -14 -14 -15 -14 -14 -14 -14 -14 -14 -14 -14 -14 -14 -14 -14 -14 -14 -14 -14 -14 -14 -14
-11 -13 -13 -11 -11 -11 -11 -11 -11 -12 -12 -13 -13 -13 -14 -14 -14 -15 -15 -15 -15 -14 -14 -14 -14 -14 -14 -14 -14 -14 -14 -14 -14 -14 -14 -14 -14 -14
-13 -13 -12 -11 -11 -11 -12 -12 -12 -13 -13 -13 -14 -14 -14 -15 -15 -15 -15 -15 -15 -15 -15 -15 -14 -14 -15 -14 -14 -14 -14 -14 -14 -14 -14 -14 -14 -14

GFSNE_700_temp_324.txt.gz
Temp
2 2 2 2 1 1 0 0 0 1 1 0 0 0 -0 -1 -1 -1 -1 -1 -2 -2 -2 -2 -1 -1 -1 -1 -2 -3 -4 -7 -8 -10 -10 -9 -8 -8
2 1 1 1 0 0 -0 -0 -0 0 -0 -0 -0 -1 -1 -1 -1 -1 -2 -2 -2 -2 -2 -2 -2 -1 -2 -2 -3 -5 -7 -8 -10 -10 -9 -9 -8 -8
1 1 1 1 0 -0 -0 -1 -0 -0 -1 -1 -1 -1 -1 -1 -2 -2 -2 -2 -2 -2 -2 -2 -2 -2 -2 -3 -5 -7 -9 -10 -11 -10 -9 -9 -9 -8
1 0 0 0 0 -1 -2 -1 -1 -1 -1 -1 -1 -2 -2 -2 -2 -2 -3 -3 -2 -2 -2 -2 -2 -2 -3 -5 -8 -9 -11 -11 -11 -10 -10 -9 -9 -9
1 -0 -0 -1 -1 -2 -2 -2 -1 -2 -1 -1 -1 -2 -2 -2 -3 -3 -3 -3 -2 -2 -2 -2 -3 -3 -5 -8 -10 -11 -12 -11 -11 -11 -10 -9 -9 -9
-1 -1 -1 -1 -0 -1 -2 -2 -2 -2 -2 -2 -2 -2 -2 -3 -3 -3 -3 -3 -3 -2 -3 -4 -4 -5 -7 -9 -11 -11 -11 -11 -11 -11 -10 -10 -10 -10
-1 -1 -1 -1 -1 -1 -1 -1 -2 -2 -2 -2 -3 -3 -3 -3 -4 -4 -3 -3 -3 -3 -4 -4 -5 -7 -9 -11 -11 -11 -11 -11 -11 -11 -10 -10 -10 -10
-1 -1 -1 -1 -1 -1 -1 -2 -2 -2 -3 -3 -3 -4 -4 -4 -4 -4 -3 -3 -3 -3 -4 -6 -8 -9 -10 -10 -11 -11 -11 -11 -12 -11 -11 -11 -10 -10
-1 -0 -1 -1 -1 -1 -1 -2 -2 -3 -4 -4 -4 -4 -5 -4 -4 -4 -4 -4 -4 -4 -5 -8 -10 -11 -11 -10 -11 -11 -12 -11 -12 -12 -11 -11 -11 -10
-1 -1 -1 -1 -1 -1 -2 -2 -3 -4 -5 -4 -5 -5 -5 -5 -5 -4 -4 -4 -6 -6 -7 -8 -10 -11 -11 -11 -11 -12 -12 -12 -12 -12 -12 -11 -11 -11
-1 -0 -1 -1 -1 -2 -2 -3 -4 -5 -5 -6 -6 -6 -6 -5 -5 -5 -5 -5 -5 -7 -8 -9 -10 -11 -12 -11 -12 -12 -12 -12 -12 -12 -12 -12 -11 -11
-0 -1 -1 -1 -2 -2 -3 -4 -5 -6 -6 -6 -6 -6 -6 -6 -5 -5 -5 -6 -6 -7 -9 -10 -11 -11 -10 -12 -11 -12 -12 -12 -12 -12 -12 -12 -12 -11
-1 -2 -1 -3 -3 -3 -4 -6 -7 -7 -7 -7 -7 -7 -6 -6 -6 -6 -6 -7 -8 -9 -10 -11 -12 -12 -12 -11 -12 -12 -12 -12 -12 -12 -12 -12 -12 -12
-1 -2 -2 -3 -4 -5 -7 -8 -8 -8 -7 -7 -7 -7 -7 -7 -7 -7 -8 -9 -9 -10 -11 -12 -12 -12 -12 -12 -12 -12 -12 -12 -13 -13 -12 -12 -12 -12
-2 -2 -3 -4 -5 -9 -9 -8 -8 -8 -8 -8 -7 -7 -7 -7 -7 -8 -9 -10 -11 -11 -12 -12 -12 -12 -12 -12 -12 -12 -12 -12 -13 -13 -13 -13 -13 -12
-3 -3 -4 -5 -7 -10 -10 -9 -9 -9 -9 -8 -8 -7 -7 -7 -8 -8 -9 -10 -11 -12 -12 -12 -12 -12 -13 -12 -13 -13 -13 -13 -13 -13 -13 -13 -13 -13
-4 -4 -6 -7 -10 -10 -10 -9 -9 -9 -9 -8 -8 -8 -8 -8 -9 -9 -10 -10 -11 -12 -13 -13 -13 -13 -13 -13 -13 -13 -13 -13 -13 -14 -14 -14 -14 -14
-5 -6 -8 -9 -10 -10 -10 -10 -10 -10 -9 -8 -9 -9 -9 -9 -10 -10 -11 -11 -12 -13 -13 -13 -13 -13 -14 -13 -13 -13 -13 -14 -14 -14 -14 -14 -14 -14
-7 -8 -9 -11 -10 -10 -10 -10 -11 -10 -9 -9 -9 -9 -10 -10 -11 -12 -12 -12 -13 -14 -14 -13 -13 -13 -13 -14 -13 -13 -14 -14 -14 -14 -14 -14 -14 -14
-9 -11 -11 -11 -11 -11 -11 -12 -10 -10 -9 -10 -10 -10 -11 -11 -12 -12 -13 -13 -14 -14 -14 -14 -14 -14 -14 -14 -14 -14 -14 -14 -14 -14 -14 -14 -14 -14
-11 -11 -11 -11 -11 -11 -13 -12 -10 -10 -10 -10 -11 -11 -11 -12 -12 -13 -13 -14 -14 -14 -14 -14 -14 -14 -14 -14 -14 -14 -14 -14 -15 -14 -14 -14 -14 -14
-12 -11 -12 -12 -12 -12 -13 -11 -11 -11 -11 -11 -11 -11 -12 -12 -13 -13 -13 -14 -15 -15 -15 -15 -15 -15 -14 -15 -14 -14 -14 -15 -15 -15 -14 -14 -14 -14
-12 -12 -12 -12 -14 -13 -12 -11 -11 -11 -11 -12 -12 -12 -13 -13 -14 -14 -14 -15 -15 -15 -15 -15 -15 -15 -15 -15 -14 -14 -15 -15 -15 -15 -15 -15 -15 -15

GFSNE_700_temp_330.txt.gz
Temp
4 4 3 3 3 2 1 1 0 0 -0 -0 -1 -1 -1 -1 -1 -1 -1 -1 -1 -1 -1 -2 -2 -2 -2 -2 -2 -2 -2 -3 -4 -6 -8 -9 -8 -8
4 3 3 3 2 2 1 0 -0 -1 -1 -1 -1 -1 -1 -2 -2 -2 -1 -1 -1 -2 -2 -2 -3 -3 -2 -2 -2 -3 -3 -4 -7 -8 -8 -9 -8 -8
3 3 2 2 2 1 0 -0 -1 -1 -1 -1 -1 -1 -1 -2 -2 -2 -2 -2 -2 -2 -2 -3 -3 -3 -3 -3 -3 -3 -4 -7 -8 -8 -8 -8 -8 -8
3 3 2 2 1 0 -0 -1 -1 -1 -1 -1 -1 -1 -2 -2 -2 -2 -2 -2 -3 -2 -3 -3 -3 -3 -3 -3 -3 -4 -6 -8 -8 -8 -8 -9 -9 -9
3 2 2 1 0 -0 -1 -1 -1 -1 -1 -1 -1 -1 -2 -2 -2 -3 -3 -3 -3 -3 -4 -3 -3 -3 -3 -3 -4 -5 -7 -9 -8 -9 -9 -9 -9 -9
2 2 2 1 0 -0 -1 -1 -1 -1 -1 -1 -1 -2 -2 -2 -2 -3 -4 -4 -4 -4 -4 -3 -3 -3 -4 -4 -5 -7 -8 -9 -9 -9 -9 -9 -9 -9
2 1 1 1 0 0 -0 -1 -1 -1 -1 -1 -1 -1 -2 -2 -3 -4 -5 -4 -4 -4 -4 -4 -4 -4 -4 -5 -6 -8 -9 -9 -9 -10 -10 -10 -10 -10
-0 1 0 -0 0 0 -1 -1 -1 -1 -1 -1 -2 -2 -3 -3 -3 -4 -5 -4 -5 -5 -5 -4 -4 -4 -5 -6 -7 -9 -9 -9 -10 -10 -10 -10 -10 -10
0 0 0 1 -0 -1 -1 -1 -1 -1 -1 -1 -1 -2 -3 -3 -4 -6 -5 -5 -5 -5 -5 -5 -5 -5 -5 -6 -8 -9 -10 -10 -10 -10 -11 -10 -10 -10
1 0 1 0 0 -1 -0 -0 -0 -1 -1 -2 -2 -2 -3 -4 -5 -6 -7 -6 -5 -5 -5 -6 -6 -6 -6 -7 -9 -10 -10 -10 -10 -11 -11 -11 -11 -11
1 1 -0 -0 0 -0 -0 -1 -1 -1 -2 -2 -2 -3 -4 -4 -5 -7 -7 -7 -6 -5 -5 -6 -7 -7 -7 -8 -9 -10 -11 -11 -11 -11 -11 -11 -11 -11
1 1 -0 -0 -0 -0 -0 -1 -1 -2 -2 -3 -3 -4 -4 -5 -6 -7 -8 -7 -6 -6 -6 -6 -7 -8 -9 -9 -10 -11 -11 -11 -11 -11 -11 -11 -11 -12
1 0 0 0 -0 -0 -1 -2 -2 -2 -2 -3 -4 -5 -5 -6 -6 -7 -9 -7 -6 -6 -6 -7 -8 -8 -9 -10 -11 -11 -11 -11 -11 -11 -12 -12 -12 -12
1 -0 -0 0 -0 -1 -1 -2 -2 -3 -3 -4 -5 -5 -6 -7 -7 -8 -9 -7 -7 -7 -7 -7 -8 -8 -10 -11 -11 -12 -12 -12 -12 -12 -12 -13 -12 -12
0 0 -0 -1 -1 -1 -1 -2 -3 -4 -4 -5 -5 -7 -7 -8 -8 -9 -8 -7 -7 -8 -8 -8 -9 -9 -10 -11 -12 -12 -12 -12 -12 -12 -13 -13 -13 -13
-0 -1 -1 -1 -2 -2 -2 -3 -4 -4 -5 -6 -7 -7 -8 -8 -9 -10 -8 -8 -8 -8 -9 -9 -9 -10 -11 -12 -12 -12 -12 -12 -12 -13 -13 -13 -13 -13
-2 -1 -2 -1 -1 -2 -3 -4 -4 -4 -6 -7 -7 -8 -8 -9 -11 -10 -9 -9 -9 -10 -9 -9 -10 -10 -12 -12 -13 -13 -13 -13 -12 -13 -13 -14 -13 -13
-2 -2 -2 -3 -3 -3 -4 -4 -4 -7 -7 -8 -8 -9 -9 -11 -10 -10 -9 -10 -10 -10 -10 -10 -11 -12 -12 -13 -13 -13 -13 -13 -13 -13 -13 -14 -14 -14
-2 -2 -3 -3 -4 -4 -4 -6 -7 -8 -8 -8 -9 -10 -11 -11 -10 -10 -10 -10 -11 -11 -11 -11 -12 -12 -13 -14 -14 -14 -14 -14 -14 -14 -14 -14 -14 -14
-4 -4 -4 -4 -4 -5 -6 -8 -8 -8 -9 -9 -10 -10 -12 -11 -10 -10 -10 -11 -11 -11 -12 -12 -12 -13 -13 -14 -14 -14 -14 -14 -14 -14 -14 -14 -14 -14
-4 -4 -4 -4 -6 -7 -8 -9 -9 -9 -10 -10 -11 -13 -12 -11 -11 -11 -11 -12 -12 -12 -12 -12 -13 -14 -14 -14 -14 -14 -14 -14 -14 -14 -14 -14 -14 -14
-5 -5 -5 -7 -8 -9 -9 -9 -10 -10 -10 -11 -12 -13 -12 -11 -11 -11 -12 -12 -12 -13 -13 -13 -14 -14 -15 -15 -15 -15 -15 -15 -15 -15 -14 -15 -15 -15
-5 -6 -8 -9 -10 -10 -10 -11 -10 -11 -11 -12 -13 -13 -12 -12 -11 -12 -12 -12 -13 -13 -14 -14 -15 -15 -15 -15 -15 -15 -15 -15 -15 -15 -15 -15 -15 -15

GFSNE_700_temp_333.txt.gz
Temp
4 4 3 3 3 2 2 1 1 1 0 0 -0 -1 -1 -1 -1 -1 -1 -1 -1 -1 -1 -1 -2 -2 -2 -3 -3 -2 -2 -2 -3 -4 -6 -7 -8 -8
4 3 3 3 2 2 2 1 1 0 -0 -0 -1 -1 -1 -1 -1 -1 -1 -1 -1 -1 -1 -2 -2 -2 -3 -3 -3 -3 -3 -3 -4 -6 -7 -8 -8 -8
3 3 3 2 2 2 1 1 0 -0 -1 -1 -1 -1 -1 -1 -1 -1 -1 -2 -2 -2 -2 -2 -2 -3 -3 -3 -3 -3 -3 -4 -5 -7 -8 -8 -8 -8
3 3 2 2 2 2 1 1 -0 -1 -1 -1 -1 -1 -1 -1 -1 -1 -2 -2 -2 -2 -2 -3 -3 -3 -4 -3 -3 -3 -4 -5 -6 -8 -9 -8 -8 -9
3 3 2 2 2 1 0 -0 -1 -1 -1 -1 -1 -1 -1 -1 -1 -2 -2 -2 -3 -2 -2 -3 -3 -4 -4 -4 -4 -4 -5 -6 -7 -9 -9 -9 -9 -9
3 2 2 2 1 1 1 0 0 -0 -1 -1 -1 -1 -1 -2 -2 -2 -3 -3 -3 -3 -3 -3 -4 -4 -4 -4 -4 -4 -5 -6 -8 -9 -9 -9 -9 -10
2 2 2 1 1 1 1 0 0 -0 -1 -1 -1 -2 -2 -2 -2 -2 -2 -3 -3 -4 -5 -5 -4 -4 -4 -4 -4 -5 -6 -8 -9 -10 -10 -10 -10 -10
-0 -0 -1 -1 0 1 1 0 -0 -0 0 -1 -1 -1 -1 -2 -2 -2 -3 -4 -4 -5 -6 -7 -5 -5 -5 -5 -5 -6 -7 -8 -10 -10 -10 -10 -10 -10
0 -0 -1 1 -0 0 0 0 0 -1 -1 -1 -1 -1 -1 -2 -2 -3 -3 -4 -5 -6 -7 -8 -6 -5 -5 -5 -5 -6 -8 -9 -10 -10 -10 -10 -10 -11
0 0 0 0 1 1 -0 -1 -1 -1 -1 -1 -1 -1 -2 -2 -3 -3 -3 -4 -5 -6 -8 -8 -6 -6 -5 -5 -6 -7 -8 -10 -10 -11 -11 -11 -11 -11
0 -0 0 1 1 -0 0 -0 -0 -1 -1 -1 -1 -2 -2 -2 -4 -4 -5 -5 -6 -6 -8 -8 -6 -6 -5 -6 -6 -8 -9 -10 -11 -11 -11 -11 -11 -11
1 1 1 1 0 1 0 0 -1 -0 -1 -1 -2 -2 -2 -3 -3 -4 -5 -6 -6 -6 -8 -7 -7 -6 -6 -6 -6 -8 -10 -11 -11 -11 -11 -11 -12 -12
0 0 0 -0 -0 -0 0 -1 -1 -1 -1 -1 -2 -2 -3 -4 -4 -5 -6 -7 -7 -7 -8 -7 -7 -7 -7 -7 -8 -9 -11 -11 -12 -12 -12 -12 -12 -12
0 1 -0 0 -0 0 0 -1 -1 -1 -1 -2 -2 -3 -3 -4 -5 -6 -7 -7 -7 -8 -8 -7 -7 -7 -8 -8 -9 -11 -11 -12 -12 -12 -12 -12 -13 -12
2 0 0 -0 -0 -1 -1 -1 -1 -1 -2 -2 -2 -4 -4 -5 -6 -7 -7 -7 -8 -9 -8 -8 -7 -8 -8 -8 -10 -11 -12 -12 -12 -12 -13 -13 -13 -13
2 -0 -1 -1 -1 -1 -2 -1 -1 -2 -2 -2 -3 -4 -4 -6 -7 -7 -7 -8 -9 -9 -8 -8 -8 -8 -9 -9 -10 -12 -12 -13 -13 -13 -13 -13 -13 -13
0 -2 -2 -2 -1 -2 -1 -2 -1 -2 -2 -4 -4 -5 -7 -7 -7 -7 -8 -9 -9 -9 -9 -9 -9 -9 -9 -10 -11 -12 -13 -13 -13 -13 -13 -13 -13 -14
-2 -2 -2 -2 -2 -2 -2 -3 -2 -3 -4 -4 -5 -7 -7 -8 -8 -8 -9 -11 -10 -10 -9 -10 -10 -10 -10 -10 -12 -13 -13 -13 -13 -13 -13 -14 -14 -14
-2 -3 -3 -4 -3 -3 -2 -3 -4 -4 -5 -7 -7 -8 -8 -8 -8 -9 -11 -11 -10 -10 -10 -11 -11 -11 -11 -12 -12 -13 -14 -14 -14 -14 -14 -14 -14 -14
-2 -4 -4 -4 -3 -3 -3 -4 -4 -5 -7 -7 -8 -9 -9 -9 -10 -10 -12 -11 -10 -11 -11 -11 -11 -11 -12 -12 -13 -14 -14 -14 -14 -14 -14 -14 -14 -14
-4 -5 -5 -5 -4 -4 -4 -4 -6 -8 -8 -9 -9 -9 -9 -10 -10 -11 -11 -11 -11 -11 -11 -11 -11 -12 -12 -13 -13 -14 -15 -14 -14 -14 -14 -14 -14 -14
-6 -6 -6 -5 -5 -5 -6 -8 -9 -8 -9 -10 -10 -10 -10 -11 -12 -12 -11 -11 -11 -11 -11 -12 -12 -13 -13 -14 -14 -15 -15 -15 -15 -15 -14 -15 -15 -15
-6 -6 -6 -6 -6 -8 -9 -9 -9 -10 -10 -10 -10 -11 -11 -12 -13 -12 -12 -12 -11 -12 -12 -12 -13 -14 -14 -14 -15 -15 -15 -15 -15 -15 -15 -15 -15 -15